Location: �perlecques
(50.8057°N, 2.1521°E)
Time: 19:29:28
(UTC+00:00)

Tiros 1 - Pass Details

Date: 08 August 2021
Orbit: 630 x 663 km, 48.4° (Epoch: 28 September)

Event Time Altitude Azimuth Distance (km) Brightness Sun altitude
Rises 21:03:27 0° 279° (W) 2,980 11.5 -13.3°
Reaches altitude 10° 21:06:19 10° 263° (W) 2,059 10.2 -13.6°
Maximum altitude 21:09:44 20° 217° (SW) 1,495 8.9 -13.9°
Enters shadow 21:12:06 14° 181° (S) 1,775 9.0 -14.2°
Drops below altitude 10° 21:13:09 10° 170° (S) 2,036 - -14.3°
Sets 21:15:57 0° 154° (SSE) 2,935 - -14.6°
